Location: Moscow
(55.7500°N, 37.5830°E)
Time: 10:42:19
(UTC+03:00)

Explorer 7 - Pass Details

Date: 30 November 2021
Orbit: 483 x 674 km, 50.3° (Epoch: 19 January)

Event Time Altitude Azimuth Distance (km) Brightness Sun altitude
Rises 09:41:11 0° 246° (WSW) 2,695 10.2 5.7°
Reaches altitude 10° 09:43:35 10° 237° (WSW) 1,772 9.4 5.9°
Maximum altitude 09:47:14 35° 172° (S) 848 8.8 6.2°
Drops below altitude 10° 09:50:44 10° 105° (ESE) 1,699 10.2 6.5°
Sets 09:53:00 0° 97° (E) 2,565 10.9 6.6°
